,,,PA_Meas_PMT16A,,PR_Meas_QMR101_102,,RH_Meas_QMH101,,SR_Meas_QMS101,,TA_Meas_QMH101,,GenWind,,GenWind,
date,time,status,PA,status,PR,status,RH,status,SR,status,TA,status,DirAvg,status,SpdAvg,
2008-03-08, 00:00:05,VALID,1005.39,VALID,0,VALID,85.1307,VALID,0.100563,VALID,25.263,VALID,312,VALID,0.0117188,
2008-03-08, 00:01:05,VALID,1005.39,VALID,0,VALID,85.802,VALID,0.100563,VALID,25.1637,VALID,292,VALID,0.271094,
2008-03-08, 00:02:05,VALID,1005.38,VALID,0,VALID,85.596,VALID,0.100563,VALID,25.1072,VALID,242,VALID,0.445703,
2008-03-08, 00:03:05,VALID,1005.33,VALID,0,VALID,85.9012,VALID,0.100563,VALID,25.0293,VALID,232,VALID,0.295703,
2008-03-08, 00:04:05,VALID,1005.34,VALID,0,VALID,86.8853,VALID,0.100563,VALID,24.9495,VALID,232,VALID,0.226563,
2008-03-08, 00:05:05,VALID,1005.31,VALID,0,VALID,86.8853,VALID,0.100563,VALID,24.8735,VALID,232,VALID,0.139062,
2008-03-08, 00:06:05,VALID,1005.3,VALID,0,VALID,87.3049,VALID,0.100563,VALID,24.7956,VALID,232,VALID,0,
2008-03-08, 00:07:05,VALID,1005.3,VALID,0,VALID,87.5338,VALID,0.100563,VALID,24.7353,VALID,232,VALID,0,
2008-03-08, 00:08:05,VALID,1005.24,VALID,0,VALID,87.8542,VALID,0,VALID,24.7196,VALID,232,VALID,0,
2008-03-08, 00:09:05,VALID,1005.24,VALID,0,VALID,87.9915,VALID,0,VALID,24.6807,VALID,232,VALID,0,
2008-03-08, 00:10:05,VALID,1005.24,VALID,0,VALID,88.3348,VALID,0,VALID,24.6222,VALID,232,VALID,0.000390625,
2008-03-08, 00:11:05,VALID,1005.23,VALID,0,VALID,88.434,VALID,0,VALID,24.562,VALID,233,VALID,0.253516,
2008-03-08, 00:12:05,VALID,1005.21,VALID,0,VALID,88.762,VALID,0,VALID,24.562,VALID,233,VALID,0,
2008-03-08, 00:13:05,VALID,1005.21,VALID,0,VALID,89.1282,VALID,0,VALID,24.5425,VALID,233,VALID,0.1875,
2008-03-08, 00:14:05,VALID,1005.19,VALID,0,VALID,88.8688,VALID,0,VALID,24.5249,VALID,233,VALID,0.132422,
2008-03-08, 00:15:05,VALID,1005.2,VALID,0,VALID,89.1053,VALID,0,VALID,24.5249,VALID,233,VALID,0.103125,
2008-03-08, 00:16:05,VALID,1005.22,VALID,0,VALID,89.2579,VALID,0,VALID,24.4451,VALID,233,VALID,0,
2008-03-08, 00:17:05,VALID,1005.21,VALID,0,VALID,89.3952,VALID,0,VALID,24.3867,VALID,233,VALID,0.276563,
2008-03-08, 00:18:05,VALID,1005.19,VALID,0,VALID,89.6012,VALID,0,VALID,24.3088,VALID,233,VALID,0,
2008-03-08, 00:19:05,VALID,1005.22,VALID,0,VALID,89.6393,VALID,0,VALID,24.2894,VALID,233,VALID,0,
2008-03-08, 00:20:05,VALID,1005.2,VALID,0,VALID,89.7843,VALID,0,VALID,24.2912,VALID,233,VALID,0,
2008-03-08, 00:21:05,VALID,1005.19,VALID,0,VALID,89.9216,VALID,0,VALID,24.2504,VALID,233,VALID,0.212891,
2008-03-08, 00:22:05,VALID,1005.18,VALID,0,VALID,89.975,VALID,0.100563,VALID,24.231,VALID,233,VALID,0,
2008-03-08, 00:23:05,VALID,1005.18,VALID,0,VALID,90.0513,VALID,0,VALID,24.2523,VALID,233,VALID,0.0796875,
2008-03-08, 00:24:05,VALID,1005.14,VALID,0,VALID,90.181,VALID,0,VALID,24.1726,VALID,233,VALID,0.176172,
2008-03-08, 00:25:05,VALID,1005.15,VALID,0,VALID,90.3259,VALID,0,VALID,24.1355,VALID,233,VALID,0.000390625,
2008-03-08, 00:26:05,VALID,1005.13,VALID,0,VALID,90.6158,VALID,0,VALID,24.0947,VALID,233,VALID,0.370313,
2008-03-08, 00:27:05,VALID,1005.12,VALID,0,VALID,90.8752,VALID,0,VALID,24.0557,VALID,233,VALID,0.207813,
2008-03-08, 00:28:05,VALID,1005.12,VALID,0,VALID,91.1193,VALID,0,VALID,24.0186,VALID,233,VALID,0.00585938,
2008-03-08, 00:29:05,VALID,1005.11,VALID,0,VALID,91.3482,VALID,0,VALID,24.0186,VALID,233,VALID,0,
2008-03-08, 00:30:05,VALID,1005.13,VALID,0,VALID,91.4092,VALID,0,VALID,23.9584,VALID,233,VALID,0,
2008-03-08, 00:31:05,VALID,1005.08,VALID,0,VALID,91.455,VALID,0,VALID,23.9195,VALID,233,VALID,0.00273437,
2008-03-08, 00:32:05,VALID,1005.08,VALID,0,VALID,91.6305,VALID,0,VALID,23.8611,VALID,233,VALID,0.0183594,
2008-03-08, 00:33:05,VALID,1005.1,VALID,0,VALID,91.7831,VALID,0,VALID,23.8434,VALID,233,VALID,0,
2008-03-08, 00:34:05,VALID,1005.07,VALID,0,VALID,91.9738,VALID,0,VALID,23.8239,VALID,233,VALID,0.00195313,
2008-03-08, 00:35:05,VALID,1005.04,VALID,0,VALID,92.1416,VALID,0,VALID,23.7832,VALID,233,VALID,0.210156,
2008-03-08, 00:36:05,VALID,1005.04,VALID,0,VALID,92.1111,VALID,0,VALID,23.7637,VALID,233,VALID,0,
2008-03-08, 00:37:05,VALID,1005,VALID,0,VALID,92.2255,VALID,0,VALID,23.7637,VALID,233,VALID,0,
2008-03-08, 00:38:05,VALID,1004.97,VALID,0,VALID,92.2789,VALID,0,VALID,23.7443,VALID,233,VALID,0.188281,
2008-03-08, 00:39:05,VALID,1004.94,VALID,0,VALID,92.4544,VALID,0,VALID,23.7266,VALID,233,VALID,0.0757812,
2008-03-08, 00:40:05,VALID,1004.94,VALID,0,VALID,92.4925,VALID,0,VALID,23.6859,VALID,233,VALID,0.203516,
2008-03-08, 00:41:05,VALID,1004.9,VALID,0,VALID,92.5688,VALID,0,VALID,23.6469,VALID,233,VALID,0.143359,
2008-03-08, 00:42:05,VALID,1004.88,VALID,0,VALID,92.7443,VALID,0,VALID,23.6469,VALID,233,VALID,0.303906,
2008-03-08, 00:43:05,VALID,1004.85,VALID,0,VALID,92.7901,VALID,0,VALID,23.6275,VALID,233,VALID,0.224219,
2008-03-08, 00:44:05,VALID,1004.86,VALID,0,VALID,92.7748,VALID,0,VALID,23.5868,VALID,233,VALID,0.144141,
2008-03-08, 00:45:05,VALID,1004.87,VALID,0,VALID,92.9198,VALID,0,VALID,23.5885,VALID,256,VALID,0.341016,
2008-03-08, 00:46:05,VALID,1004.85,VALID,0,VALID,92.9732,VALID,0,VALID,23.6098,VALID,302,VALID,0.463672,
2008-03-08, 00:47:05,VALID,1004.84,VALID,0,VALID,93.0189,VALID,0,VALID,23.5885,VALID,20,VALID,0.825,
2008-03-08, 00:48:05,VALID,1004.85,VALID,0,VALID,92.935,VALID,0,VALID,23.6275,VALID,20,VALID,0.741016,
2008-03-08, 00:49:05,VALID,1004.88,VALID,0,VALID,92.5841,VALID,0,VALID,23.7071,VALID,6,VALID,0.664453,
2008-03-08, 00:50:05,VALID,1004.84,VALID,0,VALID,92.1264,VALID,0,VALID,23.7637,VALID,18,VALID,0.569141,
2008-03-08, 00:51:05,VALID,1004.79,VALID,0,VALID,91.8365,VALID,0,VALID,23.8416,VALID,12,VALID,0.73125,
2008-03-08, 00:52:05,VALID,1004.79,VALID,0,VALID,91.4398,VALID,0,VALID,23.8805,VALID,19,VALID,0.892578,
2008-03-08, 00:53:05,VALID,1004.75,VALID,0,VALID,90.9286,VALID,0,VALID,24.0363,VALID,18,VALID,0.963672,
2008-03-08, 00:54:05,VALID,1004.72,VALID,0,VALID,90.1657,VALID,0,VALID,24.1531,VALID,35,VALID,1.18164,
2008-03-08, 00:55:05,VALID,1004.73,VALID,0,VALID,89.6699,VALID,0,VALID,24.3088,VALID,24,VALID,0.892187,
2008-03-08, 00:56:05,VALID,1004.75,VALID,0,VALID,89.4944,VALID,0,VALID,24.3283,VALID,359,VALID,0.880859,
2008-03-08, 00:57:05,VALID,1004.74,VALID,0,VALID,89.0443,VALID,0.100563,VALID,24.3459,VALID,21,VALID,1.06602,
2008-03-08, 00:58:05,VALID,1004.69,VALID,0,VALID,87.8694,VALID,0,VALID,24.5035,VALID,28,VALID,1.95313,
2008-03-08, 00:59:05,VALID,1004.69,VALID,0,VALID,86.9464,VALID,0,VALID,24.8346,VALID,13,VALID,0.973047,
2008-03-08, 01:00:05,VALID,1004.69,VALID,0,VALID,86.2826,VALID,0,VALID,24.8735,VALID,16,VALID,1.14648,
2008-03-08, 01:01:05,VALID,1004.65,VALID,0,VALID,85.3748,VALID,0,VALID,24.9709,VALID,19,VALID,1.22656,
2008-03-08, 01:02:05,VALID,1004.66,VALID,0,VALID,85.474,VALID,0,VALID,25.0488,VALID,23,VALID,0.938281,
2008-03-08, 01:03:05,VALID,1004.63,VALID,0,VALID,84.8255,VALID,0,VALID,25.0877,VALID,28,VALID,1.38242,
2008-03-08, 01:04:05,VALID,1004.63,VALID,0,VALID,83.4828,VALID,0,VALID,25.3409,VALID,21,VALID,1.50117,
2008-03-08, 01:05:05,VALID,1004.63,VALID,0,VALID,83.6049,VALID,0,VALID,25.4402,VALID,12,VALID,0.864844,
2008-03-08, 01:06:05,VALID,1004.63,VALID,0,VALID,83.6659,VALID,0,VALID,25.3604,VALID,13,VALID,1.16602,
2008-03-08, 01:07:05,VALID,1004.58,VALID,0,VALID,83.2997,VALID,0,VALID,25.4188,VALID,12,VALID,1.36133,
2008-03-08, 01:08:05,VALID,1004.57,VALID,0,VALID,82.6055,VALID,0,VALID,25.3974,VALID,26,VALID,1.42891,
2008-03-08, 01:09:05,VALID,1004.53,VALID,0,VALID,82.514,VALID,0,VALID,25.4967,VALID,52,VALID,1.4207,
2008-03-08, 01:10:05,VALID,1004.53,VALID,0,VALID,82.9488,VALID,0.100563,VALID,25.5162,VALID,15,VALID,1.03281,
2008-03-08, 01:11:05,VALID,1004.52,VALID,0,VALID,82.7276,VALID,0,VALID,25.4383,VALID,9,VALID,0.865625,
2008-03-08, 01:12:05,VALID,1004.5,VALID,0,VALID,82.2851,VALID,0,VALID,25.5181,VALID,26,VALID,1.36016,
2008-03-08, 01:13:05,VALID,1004.49,VALID,0,VALID,81.3544,VALID,0,VALID,25.6739,VALID,30,VALID,1.80078,
2008-03-08, 01:14:05,VALID,1004.49,VALID,0,VALID,81.3849,VALID,0,VALID,25.7519,VALID,30,VALID,0.920703,
2008-03-08, 01:15:05,VALID,1004.48,VALID,0,VALID,81.568,VALID,0,VALID,25.7109,VALID,27,VALID,0.987109,
2008-03-08, 01:16:05,VALID,1004.49,VALID,0,VALID,81.2705,VALID,0,VALID,25.7304,VALID,18,VALID,1.03906,
2008-03-08, 01:17:05,VALID,1004.46,VALID,0,VALID,81.156,VALID,0,VALID,25.7889,VALID,22,VALID,1.01523,
2008-03-08, 01:18:05,VALID,1004.46,VALID,0,VALID,81.5756,VALID,0,VALID,25.7694,VALID,5,VALID,0.805078,
2008-03-08, 01:19:05,VALID,1004.42,VALID,0,VALID,81.4459,VALID,0,VALID,25.7109,VALID,26,VALID,1.24336,
2008-03-08, 01:20:05,VALID,1004.42,VALID,0,VALID,81.835,VALID,0,VALID,25.672,VALID,12,VALID,1.0668,
2008-03-08, 01:21:05,VALID,1004.36,VALID,0,VALID,81.7892,VALID,0.100563,VALID,25.633,VALID,31,VALID,1.46602,
2008-03-08, 01:22:05,VALID,1004.36,VALID,0,VALID,80.9348,VALID,0,VALID,25.7109,VALID,15,VALID,1.98828,
2008-03-08, 01:23:05,VALID,1004.32,VALID,0,VALID,80.767,VALID,0.100563,VALID,25.8278,VALID,18,VALID,1.21523,
2008-03-08, 01:24:05,VALID,1004.32,VALID,0,VALID,81.6672,VALID,0,VALID,25.8083,VALID,10,VALID,0.466797,
2008-03-08, 01:25:05,VALID,1004.35,VALID,0,VALID,81.6748,VALID,0,VALID,25.7129,VALID,15,VALID,0.721875,
2008-03-08, 01:26:05,VALID,1004.32,VALID,0,VALID,81.6824,VALID,0,VALID,25.5941,VALID,35,VALID,1.14961,
2008-03-08, 01:27:05,VALID,1004.31,VALID,0,VALID,81.6443,VALID,0,VALID,25.7129,VALID,5,VALID,1.09375,
2008-03-08, 01:28:05,VALID,1004.33,VALID,0,VALID,81.5985,VALID,0,VALID,25.7109,VALID,11,VALID,0.791016,
2008-03-08, 01:29:05,VALID,1004.28,VALID,0,VALID,81.4307,VALID,0.100563,VALID,25.672,VALID,25,VALID,0.853906,
2008-03-08, 01:30:05,VALID,1004.28,VALID,0,VALID,82.2698,VALID,0,VALID,25.633,VALID,12,VALID,0.780078,
2008-03-08, 01:31:05,VALID,1004.26,VALID,0,VALID,82.2241,VALID,0,VALID,25.5551,VALID,27,VALID,0.888281,
2008-03-08, 01:32:05,VALID,1004.26,VALID,0,VALID,82.7962,VALID,0,VALID,25.5181,VALID,6,VALID,0.772266,
2008-03-08, 01:33:05,VALID,1004.23,VALID,0,VALID,83.048,VALID,0,VALID,25.3993,VALID,17,VALID,0.907812,
2008-03-08, 01:34:05,VALID,1004.19,VALID,0,VALID,82.5674,VALID,0,VALID,25.4188,VALID,19,VALID,1.2543,
2008-03-08, 01:35:05,VALID,1004.2,VALID,0,VALID,83.0556,VALID,0,VALID,25.4577,VALID,354,VALID,0.907422,
2008-03-08, 01:36:05,VALID,1004.2,VALID,0,VALID,83.1319,VALID,0,VALID,25.4188,VALID,11,VALID,0.908594,
2008-03-08, 01:37:04,VALID,1004.19,VALID,0,VALID,82.7352,VALID,0,VALID,25.4012,VALID,26,VALID,1.1332,
2008-03-08, 01:38:04,VALID,1004.16,VALID,0,VALID,82.3461,VALID,0,VALID,25.5162,VALID,22,VALID,0.874219,
2008-03-08, 01:39:04,VALID,1004.19,VALID,0,VALID,81.8655,VALID,0,VALID,25.6525,VALID,22,VALID,1.3918,
2008-03-08, 01:40:04,VALID,1004.16,VALID,0,VALID,80.7593,VALID,0,VALID,25.7499,VALID,11,VALID,1.60547,
2008-03-08, 01:41:04,VALID,1004.15,VALID,0,VALID,80.7288,VALID,0,VALID,25.8473,VALID,18,VALID,1.04258,
2008-03-08, 01:42:04,VALID,1004.12,VALID,0,VALID,80.5152,VALID,0,VALID,25.8083,VALID,26,VALID,1.24102,
2008-03-08, 01:43:04,VALID,1004.1,VALID,0,VALID,81.4383,VALID,0,VALID,25.8103,VALID,358,VALID,0.702734,
2008-03-08, 01:44:04,VALID,1004.11,VALID,0,VALID,81.3162,VALID,0,VALID,25.7109,VALID,9,VALID,0.882813,
2008-03-08, 01:45:04,VALID,1004.13,VALID,0,VALID,82.2393,VALID,0,VALID,25.633,VALID,8,VALID,0.564844,
2008-03-08, 01:46:04,VALID,1004.12,VALID,0,VALID,83.0861,VALID,0,VALID,25.5162,VALID,16,VALID,0.683594,
2008-03-08, 01:47:04,VALID,1004.11,VALID,0,VALID,82.8954,VALID,0,VALID,25.4597,VALID,11,VALID,1.11172,
2008-03-08, 01:48:04,VALID,1004.12,VALID,0,VALID,82.9717,VALID,0,VALID,25.4383,VALID,349,VALID,0.486328,
2008-03-08, 01:49:04,VALID,1004.09,VALID,0,VALID,83.4828,VALID,0,VALID,25.4402,VALID,5,VALID,0.633594,
2008-03-08, 01:50:04,VALID,1004.1,VALID,0,VALID,82.5521,VALID,0,VALID,25.4383,VALID,20,VALID,1.29805,
2008-03-08, 01:51:04,VALID,1004.09,VALID,0,VALID,82.4377,VALID,0,VALID,25.5551,VALID,6,VALID,0.936719,
2008-03-08, 01:52:04,VALID,1004.09,VALID,0,VALID,81.8655,VALID,0,VALID,25.633,VALID,19,VALID,1.06992,
2008-03-08, 01:53:04,VALID,1004.09,VALID,0,VALID,81.8197,VALID,0,VALID,25.7109,VALID,11,VALID,0.659375,
2008-03-08, 01:54:04,VALID,1004.07,VALID,0,VALID,80.8738,VALID,0,VALID,25.7908,VALID,26,VALID,0.953516,
2008-03-08, 01:55:04,VALID,1004.04,VALID,0,VALID,80.6678,VALID,0,VALID,25.8278,VALID,10,VALID,2.30039,
2008-03-08, 01:56:04,VALID,1004.04,VALID,0,VALID,80.3779,VALID,0,VALID,25.9467,VALID,24,VALID,0.745703,
2008-03-08, 01:57:04,VALID,1004.04,VALID,0,VALID,80.4389,VALID,0,VALID,25.9447,VALID,14,VALID,1.05898,
2008-03-08, 01:58:04,VALID,1004.03,VALID,0,VALID,80.7898,VALID,0,VALID,25.8863,VALID,14,VALID,0.983203,
2008-03-08, 01:59:04,VALID,1004.02,VALID,0,VALID,80.7593,VALID,0,VALID,25.8473,VALID,28,VALID,0.639063,
2008-03-08, 02:00:04,VALID,1004.03,VALID,0,VALID,80.5915,VALID,0,VALID,25.9057,VALID,22,VALID,1.12031,
2008-03-08, 02:01:04,VALID,1004.04,VALID,0,VALID,80.4847,VALID,0,VALID,25.9057,VALID,32,VALID,1.22695,
2008-03-08, 02:02:04,VALID,1004.04,VALID,0,VALID,80.3169,VALID,0,VALID,25.9642,VALID,27,VALID,1.24922,
2008-03-08, 02:03:04,VALID,1004.01,VALID,0,VALID,80.4771,VALID,0,VALID,25.9642,VALID,15,VALID,1.55273,
2008-03-08, 02:04:04,VALID,1004.03,VALID,0,VALID,80.6296,VALID,0,VALID,25.9447,VALID,21,VALID,0.873438,
2008-03-08, 02:05:04,VALID,1004.02,VALID,0,VALID,81.2018,VALID,0,VALID,25.8668,VALID,37,VALID,0.991016,
2008-03-08, 02:06:04,VALID,1003.99,VALID,0,VALID,80.2329,VALID,0,VALID,25.9057,VALID,26,VALID,1.72305,
2008-03-08, 02:07:04,VALID,1003.96,VALID,0,VALID,80.6449,VALID,0,VALID,25.9447,VALID,5,VALID,0.910547,
2008-03-08, 02:08:04,VALID,1003.99,VALID,0,VALID,81.0492,VALID,0.100563,VALID,25.8863,VALID,24,VALID,0.734766,
2008-03-08, 02:09:04,VALID,1003.98,VALID,0,VALID,81.0111,VALID,0,VALID,25.8083,VALID,18,VALID,0.620703,
2008-03-08, 02:10:04,VALID,1003.92,VALID,0,VALID,81.1865,VALID,0,VALID,25.7889,VALID,10,VALID,1.18789,
2008-03-08, 02:11:04,VALID,1003.92,VALID,0,VALID,80.7136,VALID,0,VALID,25.7889,VALID,34,VALID,1.08789,
2008-03-08, 02:12:04,VALID,1003.9,VALID,0,VALID,80.6907,VALID,0,VALID,25.8863,VALID,24,VALID,1.37656,
2008-03-08, 02:13:04,VALID,1003.87,VALID,0,VALID,80.0651,VALID,0,VALID,25.9642,VALID,27,VALID,1.61992,
2008-03-08, 02:14:04,VALID,1003.87,VALID,0,VALID,79.5387,VALID,0,VALID,26.12,VALID,22,VALID,1.33047,
2008-03-08, 02:15:04,VALID,1003.9,VALID,0,VALID,79.3556,VALID,0,VALID,26.159,VALID,25,VALID,1.4625,
2008-03-08, 02:16:04,VALID,1003.89,VALID,0,VALID,78.5775,VALID,0,VALID,26.2194,VALID,24,VALID,1.90156,
2008-03-08, 02:17:04,VALID,1003.9,VALID,0,VALID,79.3632,VALID,0,VALID,26.2759,VALID,7,VALID,0.850781,
2008-03-08, 02:18:04,VALID,1003.88,VALID,0,VALID,78.73,VALID,0,VALID,26.2584,VALID,22,VALID,1.49375,
2008-03-08, 02:19:04,VALID,1003.89,VALID,0,VALID,79.0199,VALID,0,VALID,26.2564,VALID,10,VALID,0.810156,
2008-03-08, 02:20:04,VALID,1003.91,VALID,0,VALID,79.2183,VALID,0,VALID,26.2389,VALID,28,VALID,1.52734,
2008-03-08, 02:21:04,VALID,1003.9,VALID,0,VALID,79.1954,VALID,0,VALID,26.1999,VALID,15,VALID,1.49102,
2008-03-08, 02:22:04,VALID,1003.89,VALID,0,VALID,78.9894,VALID,0,VALID,26.2174,VALID,35,VALID,1.26563,
2008-03-08, 02:23:04,VALID,1003.88,VALID,0,VALID,78.9971,VALID,0,VALID,26.1979,VALID,28,VALID,1.56953,
2008-03-08, 02:24:04,VALID,1003.91,VALID,0,VALID,79.1802,VALID,0,VALID,26.1979,VALID,41,VALID,1.44062,
2008-03-08, 02:25:04,VALID,1003.91,VALID,0,VALID,79.9812,VALID,0,VALID,26.1395,VALID,10,VALID,0.631641,
2008-03-08, 02:26:04,VALID,1003.9,VALID,0,VALID,79.7065,VALID,0,VALID,26.12,VALID,6,VALID,1.21914,
2008-03-08, 02:27:04,VALID,1003.9,VALID,0,VALID,79.4319,VALID,0,VALID,26.081,VALID,27,VALID,0.744922,
2008-03-08, 02:28:04,VALID,1003.9,VALID,0,VALID,79.5921,VALID,0,VALID,26.1025,VALID,13,VALID,0.876172,
2008-03-08, 02:29:04,VALID,1003.91,VALID,0,VALID,79.7828,VALID,0,VALID,26.0441,VALID,13,VALID,0.578516,
2008-03-08, 02:30:04,VALID,1003.94,VALID,0,VALID,79.7371,VALID,0,VALID,26.0246,VALID,22,VALID,1.30625,
2008-03-08, 02:31:04,VALID,1003.9,VALID,0,VALID,79.7905,VALID,0,VALID,26.0246,VALID,27,VALID,1.14844,
2008-03-08, 02:32:04,VALID,1003.9,VALID,0,VALID,79.47,VALID,0,VALID,26.0441,VALID,21,VALID,1.27617,
2008-03-08, 02:33:04,VALID,1003.94,VALID,0,VALID,80.1872,VALID,0,VALID,26.0226,VALID,22,VALID,0.625781,
2008-03-08, 02:34:04,VALID,1003.94,VALID,0,VALID,80.1643,VALID,0,VALID,25.9642,VALID,32,VALID,0.934766,
2008-03-08, 02:35:04,VALID,1003.94,VALID,0,VALID,80.0575,VALID,0,VALID,25.9447,VALID,29,VALID,1.30078,
2008-03-08, 02:36:04,VALID,1003.97,VALID,0,VALID,80.2253,VALID,0,VALID,25.9856,VALID,24,VALID,0.880469,
2008-03-08, 02:37:04,VALID,1003.95,VALID,0,VALID,79.2946,VALID,0,VALID,26.0635,VALID,13,VALID,1.41953,
2008-03-08, 02:38:04,VALID,1003.99,VALID,0,VALID,79.1954,VALID,0,VALID,26.1415,VALID,24,VALID,1.18945,
2008-03-08, 02:39:04,VALID,1003.98,VALID,0,VALID,79.3327,VALID,0,VALID,26.1415,VALID,12,VALID,0.535156,
2008-03-08, 02:40:04,VALID,1004.01,VALID,0,VALID,79.4243,VALID,0,VALID,26.122,VALID,24,VALID,0.991797,
2008-03-08, 02:41:04,VALID,1004.01,VALID,0,VALID,79.4777,VALID,0,VALID,26.081,VALID,38,VALID,0.553125,
2008-03-08, 02:42:04,VALID,1004.02,VALID,0,VALID,79.7218,VALID,0,VALID,26.0635,VALID,81,VALID,1.13516,
2008-03-08, 02:43:04,VALID,1003.99,VALID,0,VALID,80.1261,VALID,0,VALID,26.0051,VALID,6,VALID,0.360938,
2008-03-08, 02:44:04,VALID,1004,VALID,0,VALID,80.2253,VALID,0,VALID,25.9252,VALID,69,VALID,0.663672,
2008-03-08, 02:45:04,VALID,1003.97,VALID,0,VALID,80.4389,VALID,0,VALID,25.8882,VALID,19,VALID,0.709766,
2008-03-08, 02:46:04,VALID,1003.97,VALID,0,VALID,80.7212,VALID,0,VALID,25.7908,VALID,25,VALID,0.829687,
2008-03-08, 02:47:04,VALID,1003.98,VALID,0,VALID,80.8051,VALID,0,VALID,25.7713,VALID,40,VALID,0.944922,
2008-03-08, 02:48:04,VALID,1003.95,VALID,0,VALID,80.8356,VALID,0,VALID,25.7908,VALID,20,VALID,0.888281,
2008-03-08, 02:49:04,VALID,1003.95,VALID,0,VALID,80.622,VALID,0,VALID,25.7908,VALID,28,VALID,1.15625,
2008-03-08, 02:50:04,VALID,1003.93,VALID,0,VALID,80.3931,VALID,0,VALID,25.8668,VALID,9,VALID,0.928516,
2008-03-08, 02:51:04,VALID,1003.94,VALID,0,VALID,80.1414,VALID,0,VALID,25.9057,VALID,27,VALID,0.912109,
2008-03-08, 02:52:04,VALID,1003.92,VALID,0,VALID,79.6989,VALID,0,VALID,25.9836,VALID,39,VALID,1.44219,
2008-03-08, 02:53:04,VALID,1003.94,VALID,0,VALID,80.1795,VALID,0,VALID,26.0051,VALID,24,VALID,0.7625,
2008-03-08, 02:54:04,VALID,1003.92,VALID,0,VALID,80.0422,VALID,0,VALID,25.9272,VALID,27,VALID,1.26914,
2008-03-08, 02:55:04,VALID,1003.93,VALID,0,VALID,80.0498,VALID,0,VALID,25.9467,VALID,44,VALID,0.927734,
2008-03-08, 02:56:04,VALID,1003.9,VALID,0,VALID,80.1261,VALID,0,VALID,25.9252,VALID,31,VALID,1.04453,
2008-03-08, 02:57:04,VALID,1003.91,VALID,0,VALID,79.9812,VALID,0,VALID,25.9272,VALID,38,VALID,1.4293,
2008-03-08, 02:58:04,VALID,1003.94,VALID,0,VALID,80.1948,VALID,0,VALID,25.9272,VALID,17,VALID,0.526563,
2008-03-08, 02:59:04,VALID,1003.94,VALID,0,VALID,80.0651,VALID,0,VALID,25.9467,VALID,354,VALID,0.986328,
2008-03-08, 03:00:04,VALID,1003.93,VALID,0,VALID,80.1261,VALID,0,VALID,25.9467,VALID,9,VALID,1.03398,
2008-03-08, 03:01:04,VALID,1003.92,VALID,0,VALID,80.0804,VALID,0,VALID,25.9661,VALID,26,VALID,0.927734,
2008-03-08, 03:02:04,VALID,1003.95,VALID,0,VALID,80.1414,VALID,0,VALID,25.9077,VALID,23,VALID,0.927344,
2008-03-08, 03:03:04,VALID,1003.93,VALID,0,VALID,80.7517,VALID,0,VALID,25.8493,VALID,24,VALID,0.479688,
2008-03-08, 03:04:04,VALID,1003.96,VALID,0,VALID,80.7288,VALID,0,VALID,25.7713,VALID,29,VALID,0.828516,
2008-03-08, 03:05:04,VALID,1003.94,VALID,0,VALID,80.6144,VALID,0,VALID,25.7499,VALID,27,VALID,0.964063,
2008-03-08, 03:06:04,VALID,1003.92,VALID,0,VALID,80.6144,VALID,0,VALID,25.7109,VALID,350,VALID,0.670703,
2008-03-08, 03:07:04,VALID,1003.9,VALID,0,VALID,81.4993,VALID,0,VALID,25.6934,VALID,10,VALID,0.661328,
2008-03-08, 03:08:04,VALID,1003.93,VALID,0,VALID,80.7975,VALID,0,VALID,25.635,VALID,8,VALID,1.86836,
2008-03-08, 03:09:04,VALID,1003.91,VALID,0,VALID,80.21,VALID,0,VALID,25.8103,VALID,19,VALID,1.23125,
2008-03-08, 03:10:04,VALID,1003.93,VALID,0,VALID,79.882,VALID,0,VALID,25.9077,VALID,36,VALID,0.873438,
2008-03-08, 03:11:04,VALID,1003.9,VALID,0,VALID,79.5387,VALID,0,VALID,25.9661,VALID,63,VALID,1.03906,
2008-03-08, 03:12:04,VALID,1003.88,VALID,0,VALID,80.21,VALID,0,VALID,25.9661,VALID,6,VALID,0.517578,
2008-03-08, 03:13:04,VALID,1003.86,VALID,0,VALID,79.7218,VALID,0,VALID,25.9272,VALID,23,VALID,1.00625,
2008-03-08, 03:14:04,VALID,1003.88,VALID,0,VALID,79.8668,VALID,0,VALID,25.8863,VALID,9,VALID,0.476172,
2008-03-08, 03:15:04,VALID,1003.89,VALID,0,VALID,80.0575,VALID,0,VALID,25.8687,VALID,22,VALID,0.85,
2008-03-08, 03:16:04,VALID,1003.9,VALID,0,VALID,80.1414,VALID,0,VALID,25.8493,VALID,23,VALID,0.716406,
2008-03-08, 03:17:04,VALID,1003.9,VALID,0,VALID,80.0041,VALID,0,VALID,25.8083,VALID,26,VALID,1.24492,
2008-03-08, 03:18:04,VALID,1003.93,VALID,0,VALID,79.9659,VALID,0,VALID,25.8083,VALID,35,VALID,1.03125,
2008-03-08, 03:19:04,VALID,1003.92,VALID,0,VALID,79.676,VALID,0,VALID,25.8882,VALID,26,VALID,0.948047,
2008-03-08, 03:20:04,VALID,1003.94,VALID,0,VALID,79.6989,VALID,0,VALID,25.8668,VALID,35,VALID,0.785937,
2008-03-08, 03:21:04,VALID,1003.94,VALID,0,VALID,79.2793,VALID,0,VALID,25.8668,VALID,32,VALID,1.32148,
2008-03-08, 03:22:04,VALID,1003.93,VALID,0,VALID,79.2641,VALID,0,VALID,25.9057,VALID,33,VALID,0.577734,
2008-03-08, 03:23:04,VALID,1003.96,VALID,0,VALID,79.5158,VALID,0,VALID,25.8863,VALID,34,VALID,0.845312,
2008-03-08, 03:24:04,VALID,1003.96,VALID,0,VALID,79.3632,VALID,0,VALID,25.9077,VALID,34,VALID,1.07578,
2008-03-08, 03:25:04,VALID,1003.97,VALID,0,VALID,79.1954,VALID,0,VALID,25.9057,VALID,35,VALID,1.79219,
2008-03-08, 03:26:04,VALID,1003.97,VALID,0,VALID,78.8674,VALID,0,VALID,26.0226,VALID,32,VALID,0.932031,
2008-03-08, 03:27:04,VALID,1003.94,VALID,0,VALID,78.5012,VALID,0,VALID,26.0421,VALID,23,VALID,1.21094,
2008-03-08, 03:28:04,VALID,1003.96,VALID,0,VALID,78.608,VALID,0,VALID,26.0635,VALID,24,VALID,1.00195,
2008-03-08, 03:29:04,VALID,1003.94,VALID,0,VALID,78.5622,VALID,0,VALID,26.0246,VALID,22,VALID,0.496484,
2008-03-08, 03:30:04,VALID,1003.9,VALID,0,VALID,78.9055,VALID,0,VALID,25.9856,VALID,28,VALID,0.898047,
2008-03-08, 03:31:04,VALID,1003.91,VALID,0,VALID,78.9131,VALID,0,VALID,25.9661,VALID,20,VALID,0.848047,
2008-03-08, 03:32:04,VALID,1003.87,VALID,0,VALID,78.9665,VALID,0,VALID,25.9642,VALID,25,VALID,0.799609,
2008-03-08, 03:33:04,VALID,1003.87,VALID,0,VALID,78.7377,VALID,0,VALID,25.9661,VALID,28,VALID,1.2582,
2008-03-08, 03:34:04,VALID,1003.89,VALID,0,VALID,78.6538,VALID,0,VALID,26.0441,VALID,29,VALID,1.10156,
2008-03-08, 03:35:04,VALID,1003.9,VALID,0,VALID,78.5088,VALID,0,VALID,26.0226,VALID,31,VALID,1.1082,
2008-03-08, 03:36:04,VALID,1003.89,VALID,0,VALID,78.6919,VALID,0,VALID,26.0051,VALID,34,VALID,0.758203,
2008-03-08, 03:37:04,VALID,1003.89,VALID,0,VALID,78.7377,VALID,0,VALID,25.9642,VALID,31,VALID,1.31211,
2008-03-08, 03:38:04,VALID,1003.9,VALID,0,VALID,79.1725,VALID,0,VALID,25.9252,VALID,38,VALID,0.801562,
2008-03-08, 03:39:04,VALID,1003.88,VALID,0,VALID,78.8521,VALID,0,VALID,25.9077,VALID,33,VALID,1.19727,
2008-03-08, 03:40:04,VALID,1003.86,VALID,0,VALID,78.6385,VALID,0,VALID,25.9856,VALID,20,VALID,1.22852,
2008-03-08, 03:41:04,VALID,1003.85,VALID,0,VALID,78.6156,VALID,0,VALID,25.9661,VALID,29,VALID,1.37773,
2008-03-08, 03:42:04,VALID,1003.86,VALID,0,VALID,79.0581,VALID,0,VALID,25.9467,VALID,26,VALID,0.721875,
2008-03-08, 03:43:04,VALID,1003.83,VALID,0,VALID,79.2946,VALID,0,VALID,25.9272,VALID,13,VALID,0.721875,
2008-03-08, 03:44:04,VALID,1003.85,VALID,0,VALID,79.203,VALID,0,VALID,25.8882,VALID,35,VALID,1.05547,
2008-03-08, 03:45:04,VALID,1003.84,VALID,0,VALID,79.0047,VALID,0,VALID,25.8687,VALID,32,VALID,1.57031,
2008-03-08, 03:46:04,VALID,1003.83,VALID,0,VALID,78.8597,VALID,0,VALID,25.9681,VALID,13,VALID,0.571094,
2008-03-08, 03:47:04,VALID,1003.85,VALID,0,VALID,78.7758,VALID,0,VALID,26.0246,VALID,29,VALID,0.894531,